Regional Weather Roundup
Issued by NWS

Home | Current Version | Previous Version | Text Only | Print | Product List | Glossary On
Versions: 1 2 3 4 5 6 7 8 9 10 11 12 13 14 15 16 17 18 19 20 21 22 23 24 25 26 27 28 29 30 31 32 33 34 35 36 37 38 39 40 41 42 43 44 45 46 47 48 49 50
000
ASUS45 KPSR 080510
RWRAZ

ARIZONA HOURLY REGIONAL WEATHER ROUNDUP
NATIONAL WEATHER SERVICE PHOENIX AZ
1000 PM MST TUE JUL 07 2015

NOTE: FAIR INDICATES FEW OR NO CLOUDS BELOW 12,000 FEET WITH NO
SIGNIFICANT WEATHER AND/OR OBSTRUCTIONS TO VISIBILITY.

AZZ001>003-036-080600-
NORTHWEST ARIZONA

CITY           SKY/WX    TMP DP  RH WIND       PRES   REMARKS
BULLHEAD CITY  CLEAR     93  57  29 CALM      29.68R
KINGMAN        CLEAR     82  43  25 S10       29.91R
$$

AZZ004>008-015-016-018-080600-
NORTH CENTRAL ARIZONA

CITY           SKY/WX    TMP DP  RH WIND       PRES   REMARKS
GRAND CANYON   MOCLDY    62  48  60 SW5       30.19R
WILLIAMS       PTCLDY    61  50  67 SE5       30.26S
PRESCOTT       CLEAR     68  55  63 S10       30.07S
FLAGSTAFF      CLOUDY    55  54  96 CALM      30.22S
PAYSON         PTCLDY    72  45  37 CALM      30.09S
PAGE           CLOUDY    75  53  46 N7        30.01R
$$

AZZ009>014-017-080600-
NORTHEAST ARIZONA

CITY           SKY/WX    TMP DP  RH WIND       PRES   REMARKS
WINSLOW        CLEAR     68  49  50 SE6       30.07R
SAINT JOHNS    CLEAR     66  47  50 S3        30.14R
SHOW LOW       CLEAR     61  46  59 CALM      30.20S
$$

AZZ023-080600-
GREATER PHOENIX AREA

CITY           SKY/WX    TMP DP  RH WIND       PRES   REMARKS
PHOENIX        CLEAR     98  47  17 SW5       29.72R
BUCKEYE        CLEAR     90  46  22 SW9       29.75R
LUKE AFB       CLEAR     97  48  19 S9        29.73R
DEER VALLEY    CLEAR     94  49  21 N8        29.76R
SCOTTSDALE     CLEAR     96  47  18 CALM      29.77R
MESA-GATEWAY   PTCLDY    93  52  24 CALM      29.78
$$

AZZ027-028-080600-
SOUTHWEST MARICOPA COUNTY AND PINAL COUNTY

CITY           SKY/WX    TMP DP  RH WIND       PRES   REMARKS
CASA GRANDE    CLEAR     93  52  24 CALM      29.77R
GILA BEND      CLEAR     95  40  14 SW10      29.72R
$$

AZZ503-504-507>509-080600-
SOUTHEAST ARIZONA

CITY           SKY/WX    TMP DP  RH WIND       PRES   REMARKS
TUCSON         PTCLDY    91  49  23 W10       29.90R
DAVIS-MONTHAN  CLEAR     89  51  27 NW2       29.88R
NOGALES        CLEAR     82  56  40 W6        30.01R
SIERRA VISTA   CLEAR     75  58  56 SW9       30.07R
DOUGLAS        CLEAR     75  62  64 E3        30.03R
SAFFORD        CLEAR     80  57  45 W5        29.90R
$$

AZZ020-021-025-026-031-080600-
SOUTHWEST ARIZONA

CITY           SKY/WX    TMP DP  RH WIND       PRES   REMARKS
YUMA           PTCLDY    95  44  17 S7        29.69R
$$

CAZ031-033-041-043-047-048-061-080600-
SOUTHERN CALIFORNIA

CITY           SKY/WX    TMP DP  RH WIND       PRES   REMARKS
DOWNTOWN L.A.  PTCLDY    66  60  81 CALM      29.90R
L.A. AIRPORT   PTCLDY    66  61  84 SW9       29.90R
SAN DIEGO      CLOUDY    68  58  70 NW3       29.95R
BURBANK        CLEAR     67  59  75 SE9       29.90R
ONTARIO        CLEAR     66  59  78 W10       29.91R
RIVERSIDE      CLEAR     67  59  75 W6        29.91R
PALM SPRINGS   CLEAR     88  56  33 NW21G30   29.71R
EL CENTRO NAS  CLEAR     91  38  15 W21       29.69R
IMPERIAL       CLEAR     90  41  18 W14       29.66R
BLYTHE         CLEAR     96  52  22 S10       29.67R
NEEDLES        CLEAR    101  39  12 W12       29.68R
$$

NVZ020-UTZ003-080600-
SOUTHERN NEVADA-UTAH

CITY           SKY/WX    TMP DP  RH WIND       PRES   REMARKS
LAS VEGAS      MOCLDY    92  52  25 W5        29.74R
SALT LAKE CITY CLOUDY    75  52  44 SE8       29.96S
$$

NMZ009-TXZ055-080600-
NEW MEXICO-WEST TEXAS

CITY           SKY/WX    TMP DP  RH WIND       PRES   REMARKS
ALBUQUERQUE    TSTM      64  55  72 N9        30.19R
EL PASO        MOCLDY    72  62  71 S7        30.06R
$$


........................KEY........................
SKY/WX - SKY CONDITION/WEATHER
TMP    - TEMPERATURE IN FAHRENHEIT
DP     - DEW POINT IN FAHRENHEIT
RH     - RELATIVE HUMIDITY IN PERCENT
WIND   - DIRECTION AND SPEED IN MILES PER HOUR (MPH)
VRB    - VARIABLE WIND DIRECTION
PRES   - MEAN SEA LEVEL PRESSURE IN INCHES OF MERCURY
         F - FALLING PRESSURE   R - RISING PRESSURE
         S - STEADY PRESSURE
VSB    - VISIBILITY IN MILES
HX     - HEAT INDEX IN FAHRENHEIT
WCI    - WIND CHILL INDEX IN FAHRENHEIT
TC     - TEMPERATURE IN CELSIUS WHICH IS ALSO KNOWN AS
         TEMPERATURE IN CENTIGRADE
AFB    - AIR FORCE BASE
         LUKE AFB IS LUKE AIR FORCE BASE
         DAVIS-MONTHAN IS DAVIS-MONTHAN AIR FORCE BASE
NAS    - NAVAL AIR STATION
         EL CENTRO NAS IS EL CENTRO NAVAL AIR STATION
N/A    - NOT AVAILABLE



USA.gov is the U.S. government's official web portal to all federal, state and local government web resources and services.